Current weather by "City, St" or "zip code"  
 
Advertise Here

Current Conditions: Arlington Municipal Airport, WA

Fair


65.0 F

Last Updated on Jun 18 2021, 5:56 pm PDT
Humidity: 63%
Wind Speed: NW 12.7 mph
Barometer 30.09 in
Dewpoint: 52.0 F
Visibility: 10.00 mi
Precip: --
Heat Index: NA
Wind Chill: NA
Current conditions at:

Arlington Municipal Airport, WA (KAWO)

Lat: 48.1585 Lon: 122.15909

Local Radar Image active severe weather and emergency alerts image image weather storm and storm spotter reports image weather observation monitoring service image
Local
Radar
Active
Alerts
Storm Reports Obs
Monitoring

Sign-up For Email & Text Message Weather Alert Notification Services


Advertise Here

Observation History for Arlington Municipal Airport, WA


Time Wind
(mph)
Vis
(mi)
Weather Precip (in) Temperature (F) Relative
Humidity
Wind
Chill
(F)
Heat
Index
(F)
Pressure
Air Dwpt altimeter
(in)
sea level
(mb)
Rmks
5:56 pm PDT NW 12.7 10.00 Fair -- 65.0 52.0 63% NA NA 30.09 1019.3
4:56 pm PDT NW 15.0 10.00 Fair -- 65.0 51.1 61% NA NA 30.09 1019.4
3:56 pm PDT NW 12.7 10.00 Fair -- 66.0 50.0 56% NA NA 30.10 1019.6
1:56 pm PDT NW 8.1 10.00 Fair -- 66.0 52.0 61% NA NA 30.12 1020.3
12:56 pm PDT W 9.2 10.00 Fair -- 66.0 52.0 61% NA NA 30.13 1020.6
11:56 am PDT NW 12.7 10.00 Fair -- 64.0 52.0 65% NA NA 30.13 1020.8
10:56 am PDT NW 10.4 10.00 Fair -- 61.0 51.1 70% 60 NA 30.14 1021.0
9:56 am PDT NW 4.6 10.00 Overcast -- 61.0 51.1 70% 61 NA 30.15 1021.3
8:56 am PDT N 0.0 10.00 Fair -- 58.0 50.0 75% NA NA 30.15 1021.6
7:56 am PDT 3.5 10.00 Fair -- 57.0 48.9 74% NA NA 30.16 1021.6
6:56 am PDT N 0.0 10.00 Fair -- 52.0 48.0 86% NA NA 30.15 1021.4
5:56 am PDT N 0.0 10.00 Fair -- 48.0 45.0 89% NA NA 30.14 1021.1
4:56 am PDT N 0.0 10.00 Fair -- 49.0 46.0 90% NA NA 30.14 1020.9
2:56 am PDT N 4.6 10.00 Fair -- 48.0 45.0 89% 46 NA 30.13 1020.6
1:56 am PDT N 6.9 10.00 Fair -- 52.0 46.9 83% 50 NA 30.13 1020.8
12:56 am PDT N 5.8 10.00 Fair -- 53.0 46.0 77% 51 NA 30.14 1021.0
11:56 pm PDT N 5.8 10.00 Fair -- 55.0 45.0 69% 54 NA 30.14 1021.0
10:56 pm PDT N 5.8 10.00 Fair -- 56.0 45.0 67% 55 NA 30.14 1020.9
9:56 pm PDT N 6.9 10.00 Fair -- 57.0 45.0 64% 56 NA 30.13 1020.5
8:56 pm PDT NW 11.5 10.00 Fair -- 61.0 45.0 56% 59 NA 30.11 1020.0
6:56 pm PDT NW 11.5 10.00 Fair -- 70.0 48.9 47% NA NA 30.12 1020.2
5:56 pm PDT NW 10.4 10.00 Fair -- 72.0 50.0 46% NA NA 30.13 1020.8
4:56 pm PDT NW 13.8 10.00 Fair -- 70.0 54.0 57% NA NA 30.26 1025.0

Regional Weather Observation


Burlington/Mount Vernon, Skagit Regional Airport, WA (KBVS)

Fair with Haze
73.0 F

Whidbey Island Naval Air Station - Ault Field, WA (KNUW)

Mostly Cloudy
61.0 F

Port Townsend Jefferson County International Airport, WA (K0S9)

Fair
63.0 F

Bellingham, Bellingham International Airport, WA (KBLI)

Fair
68.0 F

Eastsound, Orcas Island Airport, WA (KORS)

Fair
70.0 F

Friday Harbor Airport, WA (KFHR)

Fair
65.0 F
Advertise Here

Advertise Here